SCP
0 0 0 0 0 0 0 0 0 0 0 0 0 0 0 0 0 0 0 0 0 0 0 0 0 0 0 0 0 0 0 0 0 0 0 0 0 0 0 0 0 0 0 0 0 0 0
0 0 0 0 0 0 0 0 0 0 0 0 0 0 0 0 0 0 0 0 0 0 0 0 0 0 0 0 0 0 0 0 0 0 0 0 0 0 0 0 0 0 0 0 0 0 0
0 0 0 0 0 0 0 0 0 0 0 0 0 0 0 0 0 0 0 0 0 0 0 0 0 0 0 0 0 0 0 0 0 0 0 0 0 0 0 0 0 0 0 0 0 0 0
0 0 0 0 0 0 0 0 0 0 0 0 0 0 0 0 0 0 0 0 0 0 0 0 0 0 0 0 0 0 0 0 0 0 0 0 0 0 0 0 0 0 0 0 0 0 0
0 0 0 0 0 0 0 0 0 0 0 0 0 0 0 0 0 0 0 0 0 0 0 0 0 0 0 0 0 0 0 0 0 1 0 0 0 0 0 0 0 0 0 0 0 0 0
0 0 0 0 0 0 0 0 0 0 0 0 0 0 0 0 0 0 0 0 0 0 0 0 0 0 0 0 0 0 0 0 0 1 1 0 0 0 0 0 0 0 0 0 0 0 0
0 0 -0 0 0 0 0 0 0 0 0 0 0 0 0 0 0 0 0 0 0 0 0 0 0 0 0 0 0 0 0 0 0 0 0 0 0 0 0 0 0 0 0 0 0 0 0
0 0 0 0 0 0 0 0 0 0 0 0 0 0 0 0 0 0 0 0 0 0 0 0 0 0 0 0 0 0 0 0 0 0 0 0 0 0 0 0 0 0 0 0 0 0 0
0 0 0 -0 -0 0 0 0 0 0 0 0 0 0 0 0 0 0 0 0 0 0 0 0 0 0 0 0 0 0 0 0 0 0 0 0 0 0 0 0 0 0 0 0 0 0 0
0 0 0 -0 -0 0 0 0 0 0 0 0 0 0 0 0 0 0 0 0 0 0 0 0 0 0 0 0 0 0 0 0 0 0 0 0 0 0 0 0 0 0 0 0 -0 -0 0
0 0 0 0 0 0 0 0 0 0 0 0 0 0 0 0 0 0 0 0 0 0 0 0 0 0 0 0 0 0 0 0 0 0 0 0 0 0 0 0 0 0 0 0 0 0 0
-0 0 0 0 0 0 0 0 0 0 0 0 0 0 0 0 0 0 0 0 0 0 0 0 0 0 0 0 0 0 0 0 0 0 0 0 0 0 0 0 0 0 0 0 0 0 0
-0 -0 0 0 0 0 0 0 0 0 0 0 0 0 0 0 0 0 0 0 0 0 0 0 0 0 0 0 0 0 0 0 0 0 0 0 0 0 0 0 0 0 0 0 0 0 0
-0 -0 0 0 -0 -0 0 0 0 0 0 0 0 0 0 0 0 0 0 0 0 0 0 0 0 0 0 0 0 0 0 0 0 0 0 0 0 0 0 0 0 0 0 0 0 0 0
-0 -0 -0 0 0 -0 -0 -0 0 0 0 0 0 0 0 0 0 0 0 0 0 0 0 0 0 0 0 0 0 0 0 0 0 0 0 0 0 0 0 0 0 0 0 0 0 0 0
0 -0 0 -0 0 0 0 0 0 0 0 0 0 0 0 0 0 0 0 0 0 0 0 0 0 0 0 0 0 0 0 0 0 0 0 0 0 0 0 0 0 0 0 0 0 0 0
-0 0 0 0 -0 -0 0 0 0 0 0 0 0 0 0 0 0 0 0 0 0 0 0 0 0 0 0 0 0 0 0 0 0 0 0 0 0 0 0 0 0 0 0 0 0 0 0
-0 -0 -0 0 -0 0 0 0 0 0 0 0 0 0 0 0 0 0 0 0 0 0 0 0 0 0 0 0 0 0 0 0 0 0 0 0 0 0 0 0 0 0 0 0 0 0 0
-0 -0 -0 0 -0 -0 -0 0 0 0 0 0 0 0 0 0 0 0 0 0 0 0 0 0 0 0 0 0 0 0 0 0 0 0 0 0 0 0 0 0 0 0 0 0 0 0 0
-0 0 -0 -0 -0 -0 0 0 0 0 0 0 0 0 0 0 0 0 0 0 0 0 0 0 0 0 0 0 0 0 0 0 0 0 0 0 0 0 0 0 0 0 0 0 0 0 0
-0 0 -0 -0 -0 -0 0 0 0 0 0 0 0 0 0 0 0 0 0 0 0 0 0 0 0 0 0 0 0 0 0 0 0 0 0 0 0 0 0 0 0 0 0 0 0 0 0
-0 0 -0 -0 0 0 -0 0 0 0 0 0 0 0 0 0 0 0 0 0 0 0 0 0 0 0 0 0 0 0 0 0 0 0 0 0 0 0 0 0 0 0 0 0 0 0 0
0 0 -0 -0 0 0 0 0 0 0 0 0 0 0 0 0 0 0 0 0 0 0 0 0 0 0 0 0 0 0 0 0 0 0 0 0 0 0 0 0 0 0 0 0 0 0 0
0 0 0 -0 0 0 0 -0 0 0 0 0 0 0 0 0 0 0 0 0 0 0 0 0 0 0 0 0 0 0 0 0 0 0 0 0 0 0 0 0 0 0 0 0 0 0 0
0 0 0 -0 0 -0 -0 0 0 0 0 0 0 0 0 0 0 0 0 0 0 0 0 0 0 0 0 0 0 0 0 0 0 0 0 0 0 0 0 0 0 0 0 0 0 0 0
-0 0 0 0 0 0 0 0 0 0 0 0 0 0 0 0 0 0 0 0 0 0 0 0 0 0 0 0 0 0 0 0 0 0 0 0 0 0 0 0 0 0 0 0 0 0 0
-0 -0 -0 0 0 0 0 0 0 0 0 0 0 0 0 0 0 0 0 0 0 0 0 0 0 0 0 0 0 0 0 0 0 0 0 0 0 0 0 0 0 0 0 0 0 0 0
-0 -0 -0 0 0 0 0 0 0 -0 -0 0 0 0 0 0 0 0 0 0 0 0 0 0 0 0 0 0 0 0 0 0 0 0 0 0 0 0 0 0 0 0 0 0 0 0 0
-0 -0 -0 -0 0 0 0 -0 -0 0 0 0 0 0 0 0 0 0 0 0 0 0 0 0 0 0 0 0 0 0 0 0 0 0 0 0 0 0 0 0 0 0 0 0 0 0 0
Wind_Speed_500mb
70 77 79 75 78 74 76 90 75 69 73 74 73 72 62 54 59 56 49 45 41 38 38 37 41 40 36 36 53 4 6 16 31 40 35 27 30 29 26 20 36 29 31 34 45 34 28
76 76 76 79 77 72 68 67 81 79 71 73 68 72 71 63 55 57 52 48 41 39 38 39 36 41 42 41 44 38 38 14 27 32 34 31 23 34 24 29 32 19 26 25 43 40 27
76 77 79 80 79 79 75 85 84 80 80 70 75 68 70 66 60 57 56 50 45 41 38 40 35 43 45 51 26 35 37 30 20 31 28 32 32 20 9 9 14 15 16 20 34 31 16
69 71 77 79 84 79 86 87 83 86 81 79 72 71 69 65 62 56 57 53 47 42 36 39 36 39 30 48 27 34 43 33 24 32 34 33 39 20 8 2 7 5 14 23 13 33 28
81 76 71 79 78 81 80 83 78 78 81 77 73 68 74 60 66 61 56 56 48 42 37 36 35 33 24 35 47 45 37 36 35 21 28 22 26 16 9 7 5 11 21 26 31 41 18
77 87 80 97 68 75 79 74 76 74 72 75 76 74 66 69 59 63 56 56 46 39 36 30 31 20 32 40 29 45 33 34 29 28 17 24 13 12 12 14 23 11 11 21 30 18 18
80 73 79 69 78 75 74 76 74 74 77 75 73 73 71 67 62 60 58 56 35 21 57 34 35 38 2 38 35 38 43 38 32 27 19 20 11 22 33 30 13 10 20 33 29 33 30
67 63 69 86 77 74 75 74 76 75 77 78 74 75 70 69 62 62 61 60 67 17 25 58 21 67 31 35 29 40 52 37 30 25 21 12 30 44 17 18 28 26 29 33 29 20 21
71 67 68 66 80 56 68 81 76 75 77 80 78 76 70 68 66 62 69 79 68 29 11 39 41 41 42 36 41 43 58 53 31 28 29 31 29 29 29 29 26 25 32 30 26 20 29
70 69 73 61 63 68 67 76 95 84 80 77 75 78 72 64 60 73 76 66 60 46 11 16 29 26 43 27 18 37 59 37 20 34 35 26 45 33 21 37 28 35 30 25 20 9 14
67 66 68 66 71 63 68 69 83 71 75 78 74 73 76 74 62 78 69 84 73 49 23 34 32 26 45 43 26 35 53 55 31 24 24 25 21 25 31 40 21 38 12 28 21 21 15
64 65 67 63 66 63 68 65 82 80 76 68 68 73 68 73 75 65 73 56 50 14 24 26 36 44 40 46 22 31 45 30 29 29 26 32 29 16 31 27 26 9 4 7 7 8 18
61 65 65 66 68 66 57 71 69 73 68 65 59 67 72 75 92 62 70 45 19 23 5 9 38 48 55 30 27 31 32 28 20 20 33 39 37 21 24 15 18 30 9 6 7 8 15
63 63 68 67 64 61 45 58 77 70 56 61 49 63 70 78 73 74 66 23 34 19 16 8 27 49 42 43 28 32 30 27 33 25 14 25 18 43 28 25 15 16 25 15 10 14 12
69 70 72 71 67 66 59 58 60 59 66 49 48 63 65 77 78 79 60 30 15 18 25 24 37 54 17 41 24 30 33 32 33 32 20 23 30 9 27 30 22 15 20 26 29 22 11
75 77 84 82 80 78 79 75 71 64 60 56 48 48 62 75 74 80 27 30 16 16 32 41 28 33 33 49 29 37 35 32 27 42 32 6 7 20 20 35 35 35 15 9 11 17 18
82 95 93 96 90 87 84 82 78 73 68 56 52 28 64 80 77 59 21 21 10 30 50 35 31 30 29 40 38 41 32 12 47 33 41 7 4 3 6 22 29 22 30 26 8 6 4
59 77 116 105 103 95 88 87 85 77 68 60 38 9 73 85 23 11 26 12 19 24 49 14 21 17 34 46 38 30 25 26 50 39 45 31 3 12 22 14 10 26 31 38 20 35 14
41 46 75 111 106 105 99 93 88 78 74 65 22 9 76 91 22 9 12 11 2 29 33 13 16 14 27 36 22 21 31 32 40 31 26 24 10 3 2 8 13 13 21 22 26 30 37
12 25 53 98 116 111 103 97 87 81 78 58 14 8 25 50 35 10 22 25 12 57 20 11 27 27 35 42 12 23 32 18 31 22 28 40 8 20 24 6 12 17 30 23 25 20 35
14 13 45 105 114 111 108 100 93 85 81 63 12 4 14 16 21 13 13 39 25 18 4 31 17 43 40 23 10 20 17 13 24 17 13 12 11 23 29 21 20 27 15 20 22 30 27
33 29 34 112 111 102 105 100 96 85 77 52 16 5 9 18 51 28 24 32 43 6 22 23 32 41 30 33 17 32 21 22 15 22 12 6 2 3 9 8 17 27 28 28 24 25 17
47 32 39 89 100 94 98 94 90 94 84 47 20 23 17 21 21 25 28 20 38 21 9 13 48 37 15 26 20 29 37 33 19 22 24 17 8 7 5 6 8 16 36 31 32 36 32
68 46 45 72 86 103 99 91 89 90 100 48 26 31 7 14 16 11 31 21 22 6 19 35 49 20 24 61 58 50 43 28 14 12 21 11 11 7 7 7 5 17 6 14 23 30 28
63 71 67 65 58 96 106 100 88 87 83 43 34 33 16 11 17 21 35 26 32 43 20 18 16 39 55 38 11 11 9 11 9 10 6 10 8 2 6 8 16 23 15 16 15 35 12
68 65 75 90 77 75 84 80 78 86 60 47 45 35 32 15 11 55 39 49 31 13 9 10 46 27 17 7 7 9 9 11 6 5 9 4 9 8 4 8 16 8 10 38 9 18 20
86 67 61 54 43 57 64 67 55 77 55 56 24 34 42 18 32 40 13 20 26 15 11 7 5 7 10 5 6 6 4 5 8 16 9 5 1 13 8 9 12 6 14 31 7 10 33
79 76 71 47 41 42 48 51 40 45 76 27 40 52 49 20 21 18 19 18 29 24 14 22 10 3 5 7 7 6 6 10 6 11 13 14 13 8 6 6 14 27 8 3 10 21 36
68 67 61 56 44 32 31 42 42 47 58 57 37 43 46 40 34 42 42 35 32 24 31 37 4 11 18 8 3 6 5 4 9 6 9 7 12 8 15 9 18 34 40 25 22 23 34
Wind_Direction_500mb
259 254 250 248 243 244 245 241 240 239 239 238 238 237 236 235 232 231 230 229 227 224 225 222 218 216 211 218 220 168 76 207 220 220 229 217 229 242 247 258 252 247 259 267 276 266 291
259 254 251 246 244 238 241 245 239 240 236 235 237 237 234 232 230 229 228 227 226 227 222 218 214 212 214 236 233 242 253 260 211 204 215 207 221 238 286 271 261 297 314 281 273 275 258
258 256 251 246 244 244 248 247 245 236 236 236 234 234 233 229 227 225 223 223 222 223 221 213 210 211 221 226 235 223 233 221 208 200 201 191 211 198 206 292 334 312 306 276 258 259 243
265 256 252 248 243 242 243 244 238 234 234 232 231 229 229 228 225 224 220 218 217 219 218 209 210 211 232 235 213 202 226 223 219 215 217 219 215 203 177 359 317 289 281 266 235 251 248
266 260 258 249 243 241 238 234 235 233 232 229 227 229 228 226 220 219 219 214 210 212 214 203 209 209 227 223 218 208 206 210 215 209 213 218 222 202 142 179 223 209 255 250 256 258 254
263 262 265 250 238 239 235 232 232 232 229 227 226 226 223 223 220 215 215 208 203 204 199 196 208 203 236 220 213 208 208 220 203 196 165 192 188 196 192 192 227 212 226 239 256 260 256
262 255 257 257 233 235 234 234 230 230 232 229 226 223 224 223 219 212 209 198 178 194 192 188 190 203 288 210 201 208 196 201 197 191 202 202 220 211 214 213 230 266 255 254 244 235 246
260 251 252 254 240 239 231 231 231 229 229 227 226 225 222 220 214 210 207 198 188 201 186 203 204 209 226 206 185 206 195 195 200 211 195 192 214 230 226 200 224 233 251 259 269 296 303
256 251 248 248 255 245 230 229 227 229 228 225 225 224 222 217 213 210 213 212 187 174 167 197 209 204 205 185 203 199 194 200 203 211 200 217 234 220 237 242 234 228 227 247 265 307 290
253 245 242 238 240 240 235 234 232 224 222 218 217 216 216 208 208 209 216 215 191 174 199 173 192 213 193 177 227 208 203 188 220 217 212 231 246 236 211 237 231 249 235 247 261 257 263
250 244 234 234 233 230 234 241 230 220 214 214 213 212 213 203 200 204 207 210 186 198 213 164 172 186 179 181 134 199 193 205 210 202 191 218 214 207 230 235 231 252 226 245 250 251 263
245 240 231 231 231 230 231 232 217 202 210 209 204 207 203 201 204 210 204 205 201 198 210 164 150 173 166 194 188 162 176 200 224 231 221 234 247 226 222 231 230 272 73 331 289 228 244
241 237 232 229 228 228 232 208 198 195 200 196 200 205 201 197 202 192 196 184 197 232 76 173 171 167 175 173 170 174 182 191 177 191 223 227 232 240 242 240 224 217 183 232 234 217 247
238 230 226 222 224 224 224 209 183 186 187 196 198 199 201 201 196 192 185 221 230 160 147 208 167 167 178 157 180 186 175 190 214 203 186 214 224 215 217 223 210 209 206 230 263 240 263
236 225 222 218 215 211 202 198 183 185 192 188 190 199 198 198 196 192 184 216 195 167 131 143 155 170 154 173 157 178 192 197 195 198 194 191 233 177 193 209 213 221 215 229 257 272 283
230 224 219 214 209 209 199 196 194 190 189 190 200 198 208 194 193 190 219 213 199 160 138 150 165 182 176 175 163 181 187 204 207 203 208 240 241 202 225 204 214 221 159 183 205 236 234
231 225 219 214 209 207 203 198 197 197 193 189 192 210 204 197 190 190 202 221 238 208 152 155 155 190 188 177 183 182 193 192 193 193 209 228 262 150 50 201 210 217 237 236 230 257 245
238 237 219 210 208 205 203 199 197 195 192 190 178 224 184 181 181 190 204 172 169 231 163 162 146 172 187 178 179 181 199 193 186 182 195 205 8 229 236 257 246 223 229 229 226 250 234
247 239 210 201 200 202 200 199 196 192 191 178 184 185 163 170 186 206 161 136 185 200 177 129 138 183 164 167 174 170 192 193 168 186 181 174 224 165 267 271 222 203 245 252 248 253 252
186 205 210 205 199 198 197 198 193 192 189 178 196 151 147 180 200 186 160 173 181 211 182 87 136 141 148 164 129 182 184 188 161 201 188 166 200 205 219 155 160 208 224 227 235 243 252
61 21 211 198 194 191 196 197 192 189 184 187 228 119 141 159 193 186 168 171 184 187 154 129 144 159 159 162 135 184 165 151 150 181 164 145 207 233 246 259 278 276 247 220 231 248 256
49 47 101 170 177 182 190 194 192 189 186 177 166 137 175 152 172 197 186 182 169 205 155 169 158 164 168 160 165 171 159 174 171 185 185 116 206 138 318 295 277 279 272 262 252 233 245
39 92 130 164 170 179 186 189 190 186 185 185 180 143 149 147 161 179 175 173 153 151 42 163 149 148 127 151 154 190 172 152 163 179 186 161 146 140 268 231 227 271 249 249 255 252 243
52 67 88 162 168 178 180 183 183 180 180 180 189 156 118 165 160 169 145 163 137 155 128 142 140 105 121 126 109 87 75 69 62 122 179 157 154 162 204 56 249 237 304 237 249 255 241
64 71 89 131 153 170 174 178 182 181 183 182 188 183 167 147 160 151 141 114 87 80 68 65 56 139 126 108 83 72 5 33 330 1 113 130 146 147 159 200 278 294 271 255 241 269 346
69 82 98 106 114 148 164 167 181 184 180 191 195 172 156 133 196 147 131 137 132 125 71 50 111 143 110 80 89 131 171 172 234 28 7 251 180 139 115 179 232 65 5 331 337 275 13
60 74 92 115 117 120 126 151 154 168 168 173 180 169 145 96 106 135 125 134 137 104 98 85 121 63 79 116 100 132 187 170 160 157 171 103 317 195 211 252 292 353 312 297 153 288 350
51 69 71 109 129 141 152 152 161 174 190 185 161 168 161 97 68 140 123 113 132 138 146 151 94 288 51 85 121 195 128 215 111 156 171 163 158 178 176 236 287 356 1 251 8 3 348
55 53 67 68 86 109 137 168 134 161 174 199 174 167 155 124 108 105 101 99 110 104 121 159 252 160 168 109 97 106 79 104 167 214 197 182 185 186 175 204 73 63 103 77 33 357 345
Wind_Speed_850mb
70 77 79 75 78 74 76 90 75 69 73 74 73 72 62 54 59 56 49 45 41 38 38 37 41 40 36 36 53 4 6 16 31 40 35 27 30 29 26 20 36 29 31 34 45 34 28
76 76 76 79 77 72 68 67 81 79 71 73 68 72 71 63 55 57 52 48 41 39 38 39 36 41 42 41 44 38 38 14 27 32 34 31 23 34 24 29 32 19 26 25 43 40 27
76 77 79 80 79 79 75 85 84 80 80 70 75 68 70 66 60 57 56 50 45 41 38 40 35 43 45 51 26 35 37 30 20 31 28 32 32 20 9 9 14 15 16 20 34 31 16
69 71 77 79 84 79 86 87 83 86 81 79 72 71 69 65 62 56 57 53 47 42 36 39 36 39 30 48 27 34 43 33 24 32 34 33 39 20 8 2 7 5 14 23 13 33 28
81 76 71 79 78 81 80 83 78 78 81 77 73 68 74 60 66 61 56 56 48 42 37 36 35 33 24 35 47 45 37 36 35 21 28 22 26 16 9 7 5 11 21 26 31 41 18
77 87 80 97 68 75 79 74 76 74 72 75 76 74 66 69 59 63 56 56 46 39 36 30 31 20 32 40 29 45 33 34 29 28 17 24 13 12 12 14 23 11 11 21 30 18 18
80 73 79 69 78 75 74 76 74 74 77 75 73 73 71 67 62 60 58 56 35 21 57 34 35 38 2 38 35 38 43 38 32 27 19 20 11 22 33 30 13 10 20 33 29 33 30
67 63 69 86 77 74 75 74 76 75 77 78 74 75 70 69 62 62 61 60 67 17 25 58 21 67 31 35 29 40 52 37 30 25 21 12 30 44 17 18 28 26 29 33 29 20 21
71 67 68 66 80 56 68 81 76 75 77 80 78 76 70 68 66 62 69 79 68 29 11 39 41 41 42 36 41 43 58 53 31 28 29 31 29 29 29 29 26 25 32 30 26 20 29
70 69 73 61 63 68 67 76 95 84 80 77 75 78 72 64 60 73 76 66 60 46 11 16 29 26 43 27 18 37 59 37 20 34 35 26 45 33 21 37 28 35 30 25 20 9 14
67 66 68 66 71 63 68 69 83 71 75 78 74 73 76 74 62 78 69 84 73 49 23 34 32 26 45 43 26 35 53 55 31 24 24 25 21 25 31 40 21 38 12 28 21 21 15
64 65 67 63 66 63 68 65 82 80 76 68 68 73 68 73 75 65 73 56 50 14 24 26 36 44 40 46 22 31 45 30 29 29 26 32 29 16 31 27 26 9 4 7 7 8 18
61 65 65 66 68 66 57 71 69 73 68 65 59 67 72 75 92 62 70 45 19 23 5 9 38 48 55 30 27 31 32 28 20 20 33 39 37 21 24 15 18 30 9 6 7 8 15
63 63 68 67 64 61 45 58 77 70 56 61 49 63 70 78 73 74 66 23 34 19 16 8 27 49 42 43 28 32 30 27 33 25 14 25 18 43 28 25 15 16 25 15 10 14 12
69 70 72 71 67 66 59 58 60 59 66 49 48 63 65 77 78 79 60 30 15 18 25 24 37 54 17 41 24 30 33 32 33 32 20 23 30 9 27 30 22 15 20 26 29 22 11
75 77 84 82 80 78 79 75 71 64 60 56 48 48 62 75 74 80 27 30 16 16 32 41 28 33 33 49 29 37 35 32 27 42 32 6 7 20 20 35 35 35 15 9 11 17 18
82 95 93 96 90 87 84 82 78 73 68 56 52 28 64 80 77 59 21 21 10 30 50 35 31 30 29 40 38 41 32 12 47 33 41 7 4 3 6 22 29 22 30 26 8 6 4
59 77 116 105 103 95 88 87 85 77 68 60 38 9 73 85 23 11 26 12 19 24 49 14 21 17 34 46 38 30 25 26 50 39 45 31 3 12 22 14 10 26 31 38 20 35 14
41 46 75 111 106 105 99 93 88 78 74 65 22 9 76 91 22 9 12 11 2 29 33 13 16 14 27 36 22 21 31 32 40 31 26 24 10 3 2 8 13 13 21 22 26 30 37
12 25 53 98 116 111 103 97 87 81 78 58 14 8 25 50 35 10 22 25 12 57 20 11 27 27 35 42 12 23 32 18 31 22 28 40 8 20 24 6 12 17 30 23 25 20 35
14 13 45 105 114 111 108 100 93 85 81 63 12 4 14 16 21 13 13 39 25 18 4 31 17 43 40 23 10 20 17 13 24 17 13 12 11 23 29 21 20 27 15 20 22 30 27
33 29 34 112 111 102 105 100 96 85 77 52 16 5 9 18 51 28 24 32 43 6 22 23 32 41 30 33 17 32 21 22 15 22 12 6 2 3 9 8 17 27 28 28 24 25 17
47 32 39 89 100 94 98 94 90 94 84 47 20 23 17 21 21 25 28 20 38 21 9 13 48 37 15 26 20 29 37 33 19 22 24 17 8 7 5 6 8 16 36 31 32 36 32
68 46 45 72 86 103 99 91 89 90 100 48 26 31 7 14 16 11 31 21 22 6 19 35 49 20 24 61 58 50 43 28 14 12 21 11 11 7 7 7 5 17 6 14 23 30 28
63 71 67 65 58 96 106 100 88 87 83 43 34 33 16 11 17 21 35 26 32 43 20 18 16 39 55 38 11 11 9 11 9 10 6 10 8 2 6 8 16 23 15 16 15 35 12
68 65 75 90 77 75 84 80 78 86 60 47 45 35 32 15 11 55 39 49 31 13 9 10 46 27 17 7 7 9 9 11 6 5 9 4 9 8 4 8 16 8 10 38 9 18 20
86 67 61 54 43 57 64 67 55 77 55 56 24 34 42 18 32 40 13 20 26 15 11 7 5 7 10 5 6 6 4 5 8 16 9 5 1 13 8 9 12 6 14 31 7 10 33
79 76 71 47 41 42 48 51 40 45 76 27 40 52 49 20 21 18 19 18 29 24 14 22 10 3 5 7 7 6 6 10 6 11 13 14 13 8 6 6 14 27 8 3 10 21 36
68 67 61 56 44 32 31 42 42 47 58 57 37 43 46 40 34 42 42 35 32 24 31 37 4 11 18 8 3 6 5 4 9 6 9 7 12 8 15 9 18 34 40 25 22 23 34
Wind_Direction_850mb
259 254 250 248 243 244 245 241 240 239 239 238 238 237 236 235 232 231 230 229 227 224 225 222 218 216 211 218 220 168 76 207 220 220 229 217 229 242 247 258 252 247 259 267 276 266 291
259 254 251 246 244 238 241 245 239 240 236 235 237 237 234 232 230 229 228 227 226 227 222 218 214 212 214 236 233 242 253 260 211 204 215 207 221 238 286 271 261 297 314 281 273 275 258
258 256 251 246 244 244 248 247 245 236 236 236 234 234 233 229 227 225 223 223 222 223 221 213 210 211 221 226 235 223 233 221 208 200 201 191 211 198 206 292 334 312 306 276 258 259 243
265 256 252 248 243 242 243 244 238 234 234 232 231 229 229 228 225 224 220 218 217 219 218 209 210 211 232 235 213 202 226 223 219 215 217 219 215 203 177 359 317 289 281 266 235 251 248
266 260 258 249 243 241 238 234 235 233 232 229 227 229 228 226 220 219 219 214 210 212 214 203 209 209 227 223 218 208 206 210 215 209 213 218 222 202 142 179 223 209 255 250 256 258 254
263 262 265 250 238 239 235 232 232 232 229 227 226 226 223 223 220 215 215 208 203 204 199 196 208 203 236 220 213 208 208 220 203 196 165 192 188 196 192 192 227 212 226 239 256 260 256
262 255 257 257 233 235 234 234 230 230 232 229 226 223 224 223 219 212 209 198 178 194 192 188 190 203 288 210 201 208 196 201 197 191 202 202 220 211 214 213 230 266 255 254 244 235 246
260 251 252 254 240 239 231 231 231 229 229 227 226 225 222 220 214 210 207 198 188 201 186 203 204 209 226 206 185 206 195 195 200 211 195 192 214 230 226 200 224 233 251 259 269 296 303
256 251 248 248 255 245 230 229 227 229 228 225 225 224 222 217 213 210 213 212 187 174 167 197 209 204 205 185 203 199 194 200 203 211 200 217 234 220 237 242 234 228 227 247 265 307 290
253 245 242 238 240 240 235 234 232 224 222 218 217 216 216 208 208 209 216 215 191 174 199 173 192 213 193 177 227 208 203 188 220 217 212 231 246 236 211 237 231 249 235 247 261 257 263
250 244 234 234 233 230 234 241 230 220 214 214 213 212 213 203 200 204 207 210 186 198 213 164 172 186 179 181 134 199 193 205 210 202 191 218 214 207 230 235 231 252 226 245 250 251 263
245 240 231 231 231 230 231 232 217 202 210 209 204 207 203 201 204 210 204 205 201 198 210 164 150 173 166 194 188 162 176 200 224 231 221 234 247 226 222 231 230 272 73 331 289 228 244
241 237 232 229 228 228 232 208 198 195 200 196 200 205 201 197 202 192 196 184 197 232 76 173 171 167 175 173 170 174 182 191 177 191 223 227 232 240 242 240 224 217 183 232 234 217 247
238 230 226 222 224 224 224 209 183 186 187 196 198 199 201 201 196 192 185 221 230 160 147 208 167 167 178 157 180 186 175 190 214 203 186 214 224 215 217 223 210 209 206 230 263 240 263
236 225 222 218 215 211 202 198 183 185 192 188 190 199 198 198 196 192 184 216 195 167 131 143 155 170 154 173 157 178 192 197 195 198 194 191 233 177 193 209 213 221 215 229 257 272 283
230 224 219 214 209 209 199 196 194 190 189 190 200 198 208 194 193 190 219 213 199 160 138 150 165 182 176 175 163 181 187 204 207 203 208 240 241 202 225 204 214 221 159 183 205 236 234
231 225 219 214 209 207 203 198 197 197 193 189 192 210 204 197 190 190 202 221 238 208 152 155 155 190 188 177 183 182 193 192 193 193 209 228 262 150 50 201 210 217 237 236 230 257 245
238 237 219 210 208 205 203 199 197 195 192 190 178 224 184 181 181 190 204 172 169 231 163 162 146 172 187 178 179 181 199 193 186 182 195 205 8 229 236 257 246 223 229 229 226 250 234
247 239 210 201 200 202 200 199 196 192 191 178 184 185 163 170 186 206 161 136 185 200 177 129 138 183 164 167 174 170 192 193 168 186 181 174 224 165 267 271 222 203 245 252 248 253 252
186 205 210 205 199 198 197 198 193 192 189 178 196 151 147 180 200 186 160 173 181 211 182 87 136 141 148 164 129 182 184 188 161 201 188 166 200 205 219 155 160 208 224 227 235 243 252
61 21 211 198 194 191 196 197 192 189 184 187 228 119 141 159 193 186 168 171 184 187 154 129 144 159 159 162 135 184 165 151 150 181 164 145 207 233 246 259 278 276 247 220 231 248 256
49 47 101 170 177 182 190 194 192 189 186 177 166 137 175 152 172 197 186 182 169 205 155 169 158 164 168 160 165 171 159 174 171 185 185 116 206 138 318 295 277 279 272 262 252 233 245
39 92 130 164 170 179 186 189 190 186 185 185 180 143 149 147 161 179 175 173 153 151 42 163 149 148 127 151 154 190 172 152 163 179 186 161 146 140 268 231 227 271 249 249 255 252 243
52 67 88 162 168 178 180 183 183 180 180 180 189 156 118 165 160 169 145 163 137 155 128 142 140 105 121 126 109 87 75 69 62 122 179 157 154 162 204 56 249 237 304 237 249 255 241
64 71 89 131 153 170 174 178 182 181 183 182 188 183 167 147 160 151 141 114 87 80 68 65 56 139 126 108 83 72 5 33 330 1 113 130 146 147 159 200 278 294 271 255 241 269 346
69 82 98 106 114 148 164 167 181 184 180 191 195 172 156 133 196 147 131 137 132 125 71 50 111 143 110 80 89 131 171 172 234 28 7 251 180 139 115 179 232 65 5 331 337 275 13
60 74 92 115 117 120 126 151 154 168 168 173 180 169 145 96 106 135 125 134 137 104 98 85 121 63 79 116 100 132 187 170 160 157 171 103 317 195 211 252 292 353 312 297 153 288 350
51 69 71 109 129 141 152 152 161 174 190 185 161 168 161 97 68 140 123 113 132 138 146 151 94 288 51 85 121 195 128 215 111 156 171 163 158 178 176 236 287 356 1 251 8 3 348
55 53 67 68 86 109 137 168 134 161 174 199 174 167 155 124 108 105 101 99 110 104 121 159 252 160 168 109 97 106 79 104 167 214 197 182 185 186 175 204 73 63 103 77 33 357 345